Weather History for KAND - October, 2013

Change the Weather History Date:

Monday, October 7, 2013

  Actual Average Record
Temperature  
Mean Temperature 70 °F -  
Max Temperature 78 °F 75 °F 91 °F (1951)
Min Temperature 62 °F 53 °F 34 °F (1991)
Cooling Degree Days 6    
Growing Degree Days 20 (Base 50)    
Moisture  
Dew Point 67 °F    
Average Humidity 87    
Maximum Humidity 100    
Minimum Humidity 63    
Precipitation  
Precipitation 0.71 in - - ()
Sea Level Pressure  
Sea Level Pressure 29.87 in    
Wind  
Wind Speed 3 mph (West)    
Max Wind Speed 12 mph    
Max Gust Speed 21 mph    
Visibility 9 miles    
Events Rain , Thunderstorm    
Averages and records for this station are not official NWS values.
T = Trace of Precipitation, MM = Missing Value Source: NWS Daily Summary

Daily Weather History Graph

Daily Weather History Graph

Search for Another Location

Airport or City:

Trip Planner

Search our weather history database for the weather conditions in past years. The results will help you decide how hot, cold, wet, or windy it might be!

Date:

Astronomy

Oct. 07, 2013 Rise Set
Actual Time 7:30 AM EDT 7:06 PM EDT
Civil Twilight 7:05 AM EDT 7:31 PM EDT
Nautical Twilight 6:35 AM EDT 8:00 PM EDT
Astronomical Twilight 6:06 AM EDT 8:29 PM EDT
Moon 10:11 AM EDT (10/7) 8:58 PM EDT (10/7)
Length of Visible Light 12h 26m
Length of Day
11h 36m
Waxing Crescent, 8% of the Moon is Illuminated
Oct 7
Waxing Crescent
Oct 11
First Quarter
Oct 18
Full
Oct 26
Last Quarter
Nov 3
New

Hourly Weather History & Observations

Time (EDT) Temp. Dew Point Humidity Pressure Visibility Wind Dir Wind Speed Gust Speed Precip Events Conditions
12:34 AM 69.8 °F 68.0 °F 94% 29.88 in 10.0 mi SSW 5.8 mph - 0.02 in Rain , Thunderstorm Light Rain
12:54 AM 69.8 °F 68.0 °F 94% 29.89 in 2.0 mi WNW 9.2 mph 20.7 mph 0.23 in Rain , Thunderstorm Heavy Thunderstorms and Rain
12:56 AM 69.1 °F 68.0 °F 96% 29.84 in 1.2 mi North 11.5 mph 20.7 mph 0.28 in Rain , Thunderstorm Heavy Thunderstorms and Rain
1:05 AM 69.8 °F 68.0 °F 94% 29.89 in 2.5 mi West 6.9 mph - 0.06 in Rain , Thunderstorm Heavy Thunderstorms and Rain
1:12 AM 69.8 °F 68.0 °F 94% 29.89 in 3.0 mi WSW 3.5 mph - 0.11 in Rain , Thunderstorm Thunderstorms and Rain
1:14 AM 69.8 °F 68.0 °F 94% 29.88 in 2.5 mi Calm Calm - 0.13 in Rain , Thunderstorm Heavy Thunderstorms and Rain
1:17 AM 69.8 °F 68.0 °F 94% 29.88 in 1.8 mi NNW 3.5 mph - 0.16 in Rain , Thunderstorm Heavy Thunderstorms and Rain
1:19 AM 69.8 °F 68.0 °F 94% 29.88 in 2.0 mi Calm Calm - 0.16 in Rain , Thunderstorm Heavy Thunderstorms and Rain
1:29 AM 69.8 °F 68.0 °F 94% 29.87 in 10.0 mi Calm Calm - 0.16 in Rain , Thunderstorm Light Thunderstorms and Rain
1:56 AM 69.1 °F 68.0 °F 96% 29.84 in 10.0 mi Calm Calm - 0.16 in   Overcast
2:12 AM 69.8 °F 68.0 °F 94% 29.86 in 10.0 mi Calm Calm - N/A   Overcast
2:20 AM 69.8 °F 68.0 °F 94% 29.86 in 10.0 mi Calm Calm - 0.00 in Rain Light Rain
2:45 AM 69.8 °F 68.0 °F 94% 29.85 in 10.0 mi Calm Calm - 0.00 in   Overcast
2:56 AM 69.1 °F 68.0 °F 96% 29.83 in 10.0 mi Calm Calm - 0.00 in   Overcast
3:14 AM 69.8 °F 68.0 °F 94% 29.85 in 10.0 mi Calm Calm - 0.04 in Rain Light Rain
3:26 AM 69.8 °F 68.0 °F 94% 29.84 in 10.0 mi Calm Calm - 0.04 in   Overcast
3:36 AM 69.8 °F 68.0 °F 94% 29.84 in 10.0 mi Calm Calm - 0.04 in   Overcast
3:45 AM 69.8 °F 68.0 °F 94% 29.83 in 10.0 mi Calm Calm - 0.04 in Rain Light Rain
3:56 AM 69.1 °F 68.0 °F 96% 29.81 in 10.0 mi Calm Calm - 0.04 in   Overcast
4:27 AM 69.8 °F 68.0 °F 94% 29.84 in 2.5 mi SW 3.5 mph - 0.08 in Rain Rain
4:31 AM 68.0 °F 68.0 °F 100% 29.84 in 1.2 mi Calm Calm - 0.15 in Rain Heavy Rain
4:38 AM 68.0 °F 68.0 °F 100% 29.84 in 1.5 mi Calm Calm - 0.18 in Rain Rain
4:41 AM 68.0 °F 68.0 °F 100% 29.84 in 3.0 mi Calm Calm - 0.18 in Rain Light Rain
4:56 AM 69.1 °F 68.0 °F 96% 29.82 in 9.0 mi WSW 3.5 mph - 0.18 in Rain Light Rain
5:34 AM 69.8 °F 68.0 °F 94% 29.85 in 10.0 mi Calm Calm - 0.00 in   Overcast
5:56 AM 69.1 °F 68.0 °F 96% 29.83 in 10.0 mi Calm Calm - 0.01 in Rain Light Rain
6:38 AM 68.0 °F 66.2 °F 94% 29.87 in 10.0 mi NW 3.5 mph - 0.00 in   Overcast
6:56 AM 68.0 °F 66.9 °F 96% 29.85 in 9.0 mi Calm Calm - 0.00 in Rain Light Rain
7:21 AM 68.0 °F 66.2 °F 94% 29.87 in 10.0 mi Calm Calm - 0.03 in   Overcast
7:32 AM 68.0 °F 66.2 °F 94% 29.86 in 10.0 mi Calm Calm - 0.03 in   Overcast
7:56 AM 68.0 °F 66.9 °F 96% 29.84 in 10.0 mi Calm Calm - 0.04 in Rain Light Rain
8:48 AM 69.8 °F 68.0 °F 94% 29.87 in 10.0 mi Calm Calm - 0.00 in   Overcast
8:56 AM 69.1 °F 68.0 °F 96% 29.86 in 10.0 mi Calm Calm - 0.00 in   Overcast
9:04 AM 69.8 °F 69.8 °F 100% 29.88 in 10.0 mi Calm Calm - N/A   Overcast
9:56 AM 71.1 °F 69.1 °F 93% 29.86 in 10.0 mi SSE 4.6 mph - N/A   Overcast
10:31 AM 73.4 °F 69.8 °F 88% 29.89 in 10.0 mi South 4.6 mph - N/A   Mostly Cloudy
10:33 AM 73.4 °F 69.8 °F 88% 29.89 in 10.0 mi Calm Calm - N/A   Mostly Cloudy
10:40 AM 71.6 °F 68.0 °F 88% 29.89 in 10.0 mi Calm Calm - N/A   Mostly Cloudy
10:45 AM 73.4 °F 69.8 °F 88% 29.88 in 10.0 mi WSW 4.6 mph - N/A   Scattered Clouds
10:56 AM 73.9 °F 68.0 °F 82% 29.86 in 10.0 mi West 6.9 mph - N/A   Scattered Clouds
11:04 AM 73.4 °F 68.0 °F 83% 29.88 in 10.0 mi WSW 5.8 mph - N/A   Mostly Cloudy
11:24 AM 73.4 °F 68.0 °F 83% 29.88 in 10.0 mi NW 5.8 mph - N/A   Overcast
11:47 AM 73.4 °F 68.0 °F 83% 29.88 in 10.0 mi Calm Calm - N/A   Mostly Cloudy
11:54 AM 73.4 °F 68.0 °F 83% 29.88 in 10.0 mi WSW 3.5 mph - N/A   Partly Cloudy
11:56 AM 73.0 °F 68.0 °F 84% 29.86 in 10.0 mi West 4.6 mph - N/A   Partly Cloudy
12:14 PM 75.2 °F 68.0 °F 78% 29.88 in 10.0 mi SSW 4.6 mph - N/A   Mostly Cloudy
12:56 PM 75.0 °F 68.0 °F 79% 29.85 in 10.0 mi West 3.5 mph - N/A   Mostly Cloudy
1:03 PM 73.4 °F 68.0 °F 83% 29.87 in 10.0 mi WSW 3.5 mph - N/A   Mostly Cloudy
1:35 PM 75.2 °F 68.0 °F 78% 29.87 in 10.0 mi WSW 5.8 mph - N/A   Mostly Cloudy
1:53 PM 75.2 °F 68.0 °F 78% 29.86 in 10.0 mi WSW 5.8 mph - N/A   Mostly Cloudy
1:56 PM 75.0 °F 68.0 °F 79% 29.84 in 10.0 mi WSW 5.8 mph - N/A   Mostly Cloudy
2:56 PM 75.0 °F 68.0 °F 79% 29.83 in 10.0 mi WSW 3.5 mph - N/A   Mostly Cloudy
3:06 PM 75.2 °F 68.0 °F 78% 29.86 in 10.0 mi SSW 3.5 mph - N/A   Scattered Clouds
3:56 PM 77.0 °F 68.0 °F 74% 29.83 in 10.0 mi SSW 3.5 mph - N/A   Scattered Clouds
4:03 PM 75.2 °F 66.2 °F 73% 29.85 in 10.0 mi Calm Calm - N/A   Mostly Cloudy
4:56 PM 75.9 °F 68.0 °F 76% 29.83 in 10.0 mi Calm Calm - N/A   Overcast
5:14 PM 75.2 °F 68.0 °F 78% 29.85 in 10.0 mi Calm Calm - N/A   Scattered Clouds
5:56 PM 75.0 °F 66.9 °F 76% 29.84 in 10.0 mi NE 5.8 mph - N/A   Partly Cloudy
6:56 PM 71.1 °F 63.0 °F 75% 29.87 in 10.0 mi ENE 10.4 mph - N/A   Clear
7:17 PM 71.6 °F 62.6 °F 73% 29.90 in 10.0 mi ENE 8.1 mph - N/A   Mostly Cloudy
7:56 PM 69.1 °F 62.1 °F 78% 29.89 in 10.0 mi NE 5.8 mph - N/A   Mostly Cloudy
8:11 PM 68.0 °F 62.6 °F 83% 29.91 in 10.0 mi NNE 4.6 mph - N/A   Scattered Clouds
8:56 PM 66.9 °F 54.0 °F 63% 29.91 in 10.0 mi NNE 6.9 mph - N/A   Clear
9:56 PM 64.0 °F 54.0 °F 70% 29.95 in 10.0 mi ENE 8.1 mph - N/A   Mostly Cloudy
10:56 PM 64.0 °F 52.0 °F 65% 29.96 in 10.0 mi NE 9.2 mph - N/A   Mostly Cloudy
11:56 PM 62.1 °F 53.1 °F 72% 29.97 in 10.0 mi ENE 8.1 mph - N/A   Scattered Clouds